User: anonymous   Login
Location: Unspecified
(0.0000°N, 0.0000°E)
Time: 09:20:41
(UTC+00:00)
Language:

Quikscat - Orbit

View from above orbital plane
View from above orbital plane
View from above satellite
View from above satellite

Ground track
Ground track

The orbit data is extracted from the following two-line orbital elements,

1 25789U 99034A   18018.47034424 -.00000006 +00000-0 +15162-4 0  9998
2 25789 098.6018 208.6837 0002069 100.0344 260.1070 14.27245497967900
Epoch (UTC): 18 January 2018 11:17:17
Eccentricity: 0.0002069
inclination: 98.6018°
perigee height: 799 km
apogee height: 802 km
right ascension of ascending node: 208.6837°
argument of perigee: 100.0344°
revolutions per day: 14.27245497
mean anomaly at epoch: 260.1070°
orbit number at epoch: 96790

The dashed part of the orbit path shows where the satellite is in the earth's shadow,  

DLR